Location: Ciserano
(45.5833°N, 9.6000°E)
Time: 05:23:02
(UTC+00:00)

Cosmos 1680 Rocket - Pass Details

Date: 29 November 2020
Orbit: 760 x 781 km, 74.1° (Epoch: 27 January)

Event Time Altitude Azimuth Distance (km) Brightness Sun altitude
Exits shadow 04:19:37 33° 345° (NNW) 1,309 4.5 -23.8°
Maximum altitude 04:22:07 81° 68° (ENE) 797 3.5 -23.4°
Drops below altitude 10° 04:27:25 10° 156° (SSE) 2,325 6.4 -22.5°
Sets 04:29:48 0° 158° (SSE) 3,246 7.2 -22.1°
